Location: Chrome
(40.5765°N, 74.2163°W)
Time: 23:58:40
(UTC+00:00)

Daily predictions for brighter satellites

Satellite Brightness Start Highest point End
(mag) Time Altitude Azimuth Time Altitude Azimuth Time Altitude Azimuth
Okean 2 3.8 23:20:18 10° N 23:24:18 42° ENE 23:28:14 10° SSE
CSL-04 Debris 4.5 23:22:18 10° SE 23:27:26 47° ENE 23:32:34 10° N
Cosmos 1898 Rocket 3.4 23:24:53 10° SSW 23:30:03 79° ESE 23:35:14 10° NNE
Cosmos 1975 2.8 23:31:03 10° S 23:35:06 71° E 23:39:11 10° NNE
Cosmos 1603 3.8 23:30:48 10° NNW 23:36:25 60° ENE 23:41:56 10° SE
CSL-04 Rocket 3.8 23:31:36 10° SSE 23:36:50 54° ENE 23:42:10 10° N
CZ-4 R/B 1.6 23:32:47 10° SSE 23:37:00 86° WSW 23:41:14 10° NNW
Cosmos 1782 Rocket 3.6 23:33:57 10° S 23:38:16 61° E 23:42:39 10° NNE
Cosmos 1908 Rocket 4.0 23:36:09 10° SSW 23:40:27 67° W 23:44:50 10° N
NOSS 2-2 (C) 3.4 23:37:14 10° S 23:40:36 42° ESE 23:44:03 10° NE
Cosmos 1544 3.9 23:37:58 10° SSW 23:41:36 57° W 23:45:12 10° N
Cosmos 858 Rocket 4.4 23:37:51 10° S 23:43:03 74° ESE 23:48:15 10° NNE
Cosmos 1025 Rocket 4.5 23:41:10 10° NNE 23:44:19 19° ENE 23:46:55 12° ESE
CZ-2C R/B 2.1 23:42:14 10° SW 23:45:21 27° S 23:47:43 14° ESE
Cosmos 372 Rocket 4.5 23:43:28 10° SSE 23:48:16 38° ESE 23:53:05 10° NE
Cosmos 807 4.1 23:45:36 10° S 23:48:34 69° E 23:52:00 10° NNE
Cosmos 1842 3.2 23:50:36 10° N 23:54:30 89° W 23:58:22 10° S
